Location: G�yn�k
(36.6721°N, 30.5542°E)
Time: 21:52:32
(UTC+00:00)

BREEZE-M DEB (TANK) - Pass Details

Date: 07 October 2020
Orbit: 333 x 12040 km, 49.7° (Epoch: 26 October)

Event Time Altitude Azimuth Distance (km) Brightness Sun altitude
Rises 22:24:41 0° 157° (SSE) 12,837 8.8 -58.0°
Reaches altitude 10° 22:39:08 10° 147° (SSE) 13,609 8.9 -56.9°
Maximum altitude 23:49:40 33° 99° (E) 13,668 9.2 -48.2°
Drops below altitude 10° 00:37:06 10° 56° (ENE) 10,947 9.3 -40.3°
Sets 00:44:49 0° 50° (NE) 10,668 9.5 -38.9°
